Weather Service Report


045 
ASUS45 KREV 040810
RWRNV 
NEVADA REGIONAL WEATHER ROUNDUP
NATIONAL WEATHER SERVICE RENO NV
1200 AM PST WED MAR 04 2015

NOTE: "FAIR" INDICATES FEW OR NO CLOUDS BELOW 12,000 FEET WITH NO
SIGNIFICANT WEATHER AND/OR OBSTRUCTIONS TO VISIBILITY.

NVZ001-003-004-040900-
WESTERN NEVADA
  
CITY           SKY/WX    TMP DP  RH WIND       PRES   REMARKS
RENO           CLEAR     31  19  61 CALM      30.12R                  
CARSON CITY    FAIR      27  19  74 N3        30.12R                  
MINDEN         FAIR      18  14  86 SE6       30.13                   
SLIDE MTN        N/A     18   0  45 NE35        N/A  WCI  -3          
PYRAMID LAKE     N/A     37 N/A N/A SW7         N/A                   
FALLON         CLEAR     27  16  63 SW5       30.12R                  
LOVELOCK       CLEAR     23  12  62 NW3       30.12R                  
HAWTHORNE      CLEAR     32  19  59 CALM      30.12S                  
$$

NVZ002-CAZ072-073-040900-
NORTHERN AND CENTRAL SIERRA
  
CITY           SKY/WX    TMP DP  RH WIND       PRES   REMARKS
S. LAKE TAHOE  CLEAR     24  15  68 S7        30.06R                  
TRUCKEE        CLEAR     19  18  93 S3        30.08S                  
SQUAW VLY 8000   N/A     21  16  79 E3          N/A                   
SUSANVILLE     CLEAR     28  19  69 W6        30.12                   
BLUE CANYON    CLEAR     35   6  29 E9G17     30.03S                  
MAMMOTH LAKES  FAIR      21  14  73 W8        30.07R                  
BRIDGEPORT     FAIR      18   9  68 CALM      30.06R                  
$$

NVZ030-031-036-040900-
NORTHERN NEVADA
  
CITY           SKY/WX    TMP DP  RH WIND       PRES   REMARKS
ELKO           CLEAR     19  13  77 SW5       30.08R                  
WINNEMUCCA     CLEAR     16  12  84 S3        30.12R                  
WENDOVER       PTCLDY    30  12  47 NW9       30.05R                  
$$

NVZ035-037-040900-
CENTRAL NEVADA
  
CITY           SKY/WX    TMP DP  RH WIND       PRES   REMARKS
ELY            MOCLDY     9   6  88 S9        30.03S                  
EUREKA           N/A      8   3  80 S6        30.07S                  
$$

NVZ013-014-040900-
SOUTH CENTRAL NEVADA
  
CITY           SKY/WX    TMP DP  RH WIND       PRES   REMARKS
TONOPAH        CLEAR     28  13  53 N14       30.07R                  
$$

NVZ017-020-022-040900-
SOUTHERN NEVADA
  
CITY           SKY/WX    TMP DP  RH WIND       PRES   REMARKS
LAS VEGAS      PTCLDY    49  21  33 N13       29.98R                  
N. LAS VEGAS   CLEAR     47  17  30 N10G20    30.01R                  
NELLIS AFB     CLEAR     48  21  34 N9G22     30.02R                  
HENDERSON      PTCLDY    45  25  45 NE13      30.02R                  
MERCURY        CLEAR     37  22  54 E7        30.04R                  
$$

Return to Home page


Western Regional Climate Center, wrcc@dri.edu